Location: Antioch
(38.0049°N, 121.8058°W)
Time: 23:43:28
(UTC+00:00)

Helios 1A Rocket - Pass Details

Date: 11 February 2026
Orbit: 420 x 430 km, 98.3° (Epoch: 9 March)

Event Time Altitude Azimuth Distance (km) Brightness Sun altitude
Rises 14:11:32 0° 159° (SSE) 2,399 6.5 -10.4°
Reaches altitude 10° 14:13:33 10° 156° (SSE) 1,532 5.6 -10.0°
Maximum altitude 14:16:47 61° 75° (ENE) 493 2.9 -9.4°
Drops below altitude 10° 14:20:01 10° 354° (N) 1,532 4.9 -8.8°
Sets 14:22:02 0° 351° (N) 2,400 5.9 -8.4°
